Location: Alsip
(41.6689°N, 87.7387°W)
Time: 13:59:06
(UTC+00:00)

Genesis I - Pass Details

Date: 14 July 2020
Orbit: 509 x 513 km, 64.5° (Epoch: 04 August)

Event Time Altitude Azimuth Distance (km) Brightness Sun altitude
Rises 02:14:18 0° 213° (SSW) 2,609 6.7 -8.4°
Reaches altitude 10° 02:16:27 10° 213° (SSW) 1,727 5.8 -8.8°
Maximum altitude 02:20:19 87° 303° (WNW) 518 3.2 -9.3°
Drops below altitude 10° 02:24:13 10° 33° (NNE) 1,737 6.0 -9.9°
Sets 02:26:24 0° 33° (NNE) 2,627 6.9 -10.2°
